Alpine, TX

6:31 AM CST on December 08, 2016 (GMT -0600)
Alpine

Weather History for KE38 - March, 2013

Change the Weather History Date:

Sunday, March 31, 2013

  Actual Average (KMRF) Record (KMRF)
Temperature  
Mean Temperature 64 °F -  
Max Temperature 75 °F 70 °F 82 °F (2012)
Min Temperature 53 °F 37 °F 24 °F (1998)
Degree Days  
Heating Degree Days 1    
Growing Degree Days 14 (Base 50)    
Moisture  
Dew Point 31 °F    
Average Humidity 27    
Maximum Humidity 49    
Minimum Humidity 17    
Precipitation  
Precipitation 0.00 in - - ()
Sea Level Pressure  
Sea Level Pressure 30.11 in    
Wind  
Wind Speed 5 mph (NE)    
Max Wind Speed 22 mph    
Max Gust Speed 26 mph    
Visibility 10 miles    
Events      
Averages and records for this station are not official NWS values.
T = Trace of Precipitation, MM = Missing Value Source: NWS Daily Summary

Daily Weather History Graph

Daily Weather History Graph

Search for Another Location

Airport or City:

Trip Planner

Search our weather history database for the weather conditions in past years. The results will help you decide how hot, cold, wet, or windy it might be!

Date:

Astronomy

Mar. 31, 2013 Rise Set
Actual Time 7:44 AM CDT 8:13 PM CDT
Civil Twilight 7:20 AM CDT 8:37 PM CDT
Nautical Twilight 6:52 AM CDT 9:05 PM CDT
Astronomical Twilight 6:23 AM CDT 9:34 PM CDT
Moon 12:04 AM CDT (3/31) 10:52 AM CDT (3/31)
Length of Visible Light 13h 16m
Length of Day
12h 28m
Waning Gibbous, 77% of the Moon is Illuminated
Mar 31
Waning Gibbous
Apr 2
Last Quarter
Apr 10
New
Apr 18
First Quarter
Apr 25
Full

Hourly Weather History & Observations

Time (CDT) Temp. Dew Point Humidity Pressure Visibility Wind Dir Wind Speed Gust Speed Precip Events Conditions
12:15 AM 62.6 °F 25.2 °F 24% 30.11 in 10.0 mi Calm Calm - N/A   Scattered Clouds
12:35 AM 63.7 °F 25.0 °F 23% 30.11 in 10.0 mi SW 6.9 mph - N/A   Mostly Cloudy
12:55 AM 64.2 °F 25.0 °F 23% 30.10 in 10.0 mi SW 3.5 mph - N/A   Scattered Clouds
1:15 AM 61.2 °F 25.9 °F 26% 30.10 in 7.0 mi South 4.6 mph - N/A   Scattered Clouds
1:35 AM 61.0 °F 26.6 °F 27% 30.09 in 10.0 mi WSW 3.5 mph - N/A   Clear
1:55 AM 61.2 °F 26.6 °F 27% 30.09 in 7.0 mi South 3.5 mph - N/A   Mostly Cloudy
2:15 AM 61.3 °F 27.1 °F 27% 30.10 in 10.0 mi Calm Calm - N/A   Scattered Clouds
2:35 AM 62.6 °F 26.6 °F 26% 30.09 in 10.0 mi NNW 6.9 mph - N/A   Mostly Cloudy
2:55 AM 63.7 °F 25.9 °F 24% 30.09 in 10.0 mi Calm Calm - N/A   Mostly Cloudy
3:15 AM 60.4 °F 27.5 °F 29% 30.08 in 10.0 mi Calm Calm - N/A   Mostly Cloudy
3:35 AM 61.7 °F 27.9 °F 28% 30.09 in 10.0 mi SSW 3.5 mph - N/A   Overcast
3:55 AM 62.1 °F 27.3 °F 27% 30.09 in 10.0 mi Calm Calm - N/A   Overcast
4:15 AM 63.0 °F 27.0 °F 26% 30.07 in 10.0 mi South 3.5 mph - N/A   Overcast
4:35 AM 61.5 °F 27.7 °F 28% 30.07 in 10.0 mi South 8.1 mph - N/A   Overcast
4:55 AM 64.4 °F 26.6 °F 24% 30.06 in 10.0 mi Calm Calm - N/A   Overcast
5:15 AM 61.3 °F 28.2 °F 29% 30.06 in 10.0 mi Calm Calm - N/A   Mostly Cloudy
5:35 AM 63.0 °F 28.6 °F 27% 30.06 in 10.0 mi NNE 3.5 mph - N/A   Overcast
5:55 AM 65.5 °F 27.9 °F 24% 30.04 in 10.0 mi East 6.9 mph - N/A   Scattered Clouds
6:15 AM 63.3 °F 28.4 °F 27% 30.05 in 10.0 mi Calm Calm - N/A   Clear
6:35 AM 61.3 °F 28.4 °F 29% 30.06 in 10.0 mi NNW 5.8 mph - N/A   Mostly Cloudy
6:55 AM 61.2 °F 28.0 °F 28% 30.07 in 10.0 mi Calm Calm - N/A   Scattered Clouds
7:15 AM 59.2 °F 29.3 °F 32% 30.08 in 10.0 mi SSW 3.5 mph - N/A   Scattered Clouds
7:35 AM 59.4 °F 30.2 °F 33% 30.09 in 10.0 mi Calm Calm - N/A   Scattered Clouds
7:55 AM 58.8 °F 30.6 °F 34% 30.09 in 10.0 mi Calm Calm - N/A   Scattered Clouds
8:15 AM 61.0 °F 29.8 °F 31% 30.11 in 7.0 mi South 8.1 mph - N/A   Mostly Cloudy
8:35 AM 63.7 °F 29.8 °F 28% 30.11 in 10.0 mi Calm Calm - N/A   Overcast
8:55 AM 65.5 °F 31.3 °F 28% 30.11 in 10.0 mi SSW 3.5 mph - N/A   Scattered Clouds
9:15 AM 68.7 °F 30.2 °F 24% 30.12 in 10.0 mi Calm Calm - N/A   Scattered Clouds
9:35 AM 71.1 °F 25.9 °F 18% 30.11 in 10.0 mi Calm Calm - N/A   Scattered Clouds
9:55 AM 72.0 °F 25.9 °F 18% 30.12 in 10.0 mi North 4.6 mph - N/A   Clear
10:15 AM 71.8 °F 26.1 °F 18% 30.13 in 10.0 mi North 8.1 mph - N/A   Clear
10:35 AM 72.3 °F 26.6 °F 18% 30.13 in 10.0 mi NE 5.8 mph - N/A   Clear
10:55 AM 73.9 °F 26.6 °F 17% 30.13 in 10.0 mi NNE 3.5 mph - N/A   Clear
11:15 AM 73.6 °F 26.6 °F 17% 30.13 in 10.0 mi North 11.5 mph 17.3 mph N/A   Clear
11:35 AM 74.3 °F 27.5 °F 18% 30.14 in 10.0 mi NNE 15.0 mph 25.3 mph N/A   Clear
11:55 AM 74.8 °F 28.0 °F 18% 30.14 in 10.0 mi NNE 16.1 mph 26.5 mph N/A   Clear
12:15 PM 73.6 °F 28.9 °F 19% 30.15 in 10.0 mi North 21.9 mph 25.3 mph N/A   Clear
12:35 PM 73.9 °F 29.3 °F 19% 30.16 in 10.0 mi NNE 16.1 mph 20.7 mph N/A   Clear
12:55 PM 73.8 °F 30.7 °F 21% 30.16 in 10.0 mi NNE 13.8 mph 23.0 mph N/A   Clear
1:15 PM 74.1 °F 32.7 °F 22% 30.16 in 10.0 mi NNE 19.6 mph 25.3 mph N/A   Clear
1:35 PM 73.4 °F 32.4 °F 22% 30.16 in 7.0 mi NNE 17.3 mph 25.3 mph N/A   Clear
1:55 PM 73.6 °F 33.1 °F 23% 30.16 in 7.0 mi NNE 15.0 mph 25.3 mph N/A   Clear
2:15 PM 73.4 °F 33.1 °F 23% 30.15 in 7.0 mi NE 10.4 mph 23.0 mph N/A   Clear
2:35 PM 73.4 °F 34.2 °F 24% 30.15 in 7.0 mi North 12.7 mph 21.9 mph N/A   Clear
2:55 PM 74.3 °F 34.0 °F 23% 30.13 in 10.0 mi North 13.8 mph 20.7 mph N/A   Clear
3:15 PM 75.0 °F 34.2 °F 23% 30.12 in 10.0 mi NE 11.5 mph 18.4 mph N/A   Clear
3:35 PM 74.8 °F 34.5 °F 23% 30.11 in 10.0 mi NNE 15.0 mph 19.6 mph N/A   Clear
3:55 PM 74.8 °F 35.6 °F 24% 30.11 in 10.0 mi North 11.5 mph 16.1 mph N/A   Clear
4:15 PM 75.6 °F 35.6 °F 23% 30.10 in 10.0 mi ENE 16.1 mph 19.6 mph N/A   Clear
4:35 PM 75.6 °F 36.0 °F 24% 30.09 in 10.0 mi NE 10.4 mph 19.6 mph N/A   Clear
4:55 PM 75.0 °F 36.1 °F 24% 30.09 in 10.0 mi NE 10.4 mph 18.4 mph N/A   Clear
5:15 PM 74.5 °F 35.6 °F 24% 30.09 in 10.0 mi ENE 11.5 mph 16.1 mph N/A   Clear
5:35 PM 74.3 °F 35.8 °F 25% 30.08 in 10.0 mi ENE 11.5 mph 17.3 mph N/A   Clear
5:55 PM 74.5 °F 35.8 °F 24% 30.08 in 10.0 mi ENE 12.7 mph 17.3 mph N/A   Clear
6:15 PM 74.1 °F 36.0 °F 25% 30.08 in 10.0 mi ENE 12.7 mph - N/A   Clear
6:35 PM 73.6 °F 36.1 °F 26% 30.09 in 10.0 mi East 9.2 mph 17.3 mph N/A   Clear
6:55 PM 72.9 °F 36.3 °F 26% 30.09 in 10.0 mi NE 12.7 mph - N/A   Clear
7:15 PM 71.8 °F 36.0 °F 27% 30.09 in 10.0 mi NE 11.5 mph - N/A   Clear
7:35 PM 70.7 °F 36.1 °F 28% 30.10 in 10.0 mi NE 12.7 mph - N/A   Clear
7:55 PM 69.4 °F 36.3 °F 30% 30.11 in 10.0 mi NE 10.4 mph - N/A   Clear
8:15 PM 67.5 °F 36.1 °F 32% 30.11 in 10.0 mi NE 9.2 mph - N/A   Clear
8:35 PM 66.2 °F 36.1 °F 33% 30.11 in 10.0 mi NE 6.9 mph - N/A   Clear
8:55 PM 63.0 °F 35.8 °F 36% 30.12 in 10.0 mi NNE 4.6 mph - N/A   Clear
9:15 PM 61.3 °F 35.4 °F 38% 30.12 in 10.0 mi Calm Calm - N/A   Clear
9:35 PM 59.5 °F 35.4 °F 41% 30.13 in 10.0 mi Calm Calm - N/A   Clear
9:55 PM 58.3 °F 35.1 °F 42% 30.14 in 10.0 mi Calm Calm - N/A   Clear
10:15 PM 60.6 °F 36.0 °F 40% 30.15 in 10.0 mi Calm Calm - N/A   Clear
10:35 PM 56.8 °F 34.5 °F 43% 30.15 in 10.0 mi Calm Calm - N/A   Clear
10:55 PM 53.8 °F 34.2 °F 47% 30.16 in 10.0 mi Calm Calm - N/A   Clear
11:15 PM 53.2 °F 34.5 °F 49% 30.16 in 10.0 mi WSW 3.5 mph - N/A   Clear
11:55 PM 54.1 °F 34.9 °F 48% 30.15 in 10.0 mi SSW 3.5 mph - N/A   Clear